sat.trackr.live / text

‹ back to catalog

GAOFEN-10R

NORAD 44622 · 2019-066A

PAYLOAD ACTIVE UNKNOWN

§ Identity

Operator
Country
PRC
Launch date
2019-10-04
Launch site
TAISC
Launch vehicle
Mass (kg)
RCS (m²)

Purposes: earth_obs

External: N2YO · Heavens-Above · Gunter

§ Orbital elements

Epoch: 2026-09-20T05:10:30.131328Z

Period
97.09 min
Inclination
98.0603°
Eccentricity
0.0005525
Mean motion
14.83173592 rev/d
Perigee alt
615.5 km
Apogee alt
623.2 km
Semi-major
6,997.5 km
B*
9.1225e-5
RAAN
217.5367°
Arg perigee
171.5352°
Mean anomaly
188.5955°
Rev number
37,646

§ Raw data

GAOFEN-10R1 44622U 19066A   26263.21562652  .00000689  00000+0  91225-4 0  99932 44622  98.0603 217.5367 0005525 171.5352 188.5955 14.83173592376468

JSON: /api/v1/satellites/44622 · /tle

For live sub-satellite position, see the globe view (requires WebGL).

§ Visibility from observer

Set your observer location to see the next 7 days of passes ≥ 10°. The values pass through the URL so the page stays shareable.

No JS? Fill the form by hand. The geolocation button needs JavaScript.